Weather in Ağcabədi

Azerbaijan     40˚02′31″N   47˚26′30″E
temp.,
°C
wind,
m/s
gust,
m/s
humid.,
%
clouds,
%
prec.,
mm/h
press.,
hPa
HPBL,
m
1 december, tue
tue101:00+7˚se487195 0.0 1025362
04:00+6˚w018188 0.0 102423
07:00+6˚nne018090 0.0 102423
10:00+8˚ne116671 0.0 1024231
13:00+11˚ne11593 0.0 1023744
16:00+11˚n11562 0.0 1022855
19:00+8˚w11710 0.0 102422
22:00+7˚sw11750 0.0 102522
2 december, wed
wed201:00+6˚wsw11810 0.0 102522
04:00+5˚nw11840 0.0 102522
07:00+5˚wnw12860 0.0 102622
10:00+9˚wnw01690 0.0 1026132
13:00+12˚ne11570 0.0 1025640
16:00+12˚ne11520 0.0 1025821
19:00+9˚ese126753 0.0 102622
22:00+8˚sse127276 0.0 102722
3 december, thu
thu301:00+9˚ssw2275100 0.0 102838
04:00+9˚ssw1179100 0.0 102822
07:00+9˚se2383100 0.0 1029145
10:00+9˚sse2480100 0.0 1030352
13:00+11˚ese346994 0.0 1029528
16:00+11˚ese336574 0.0 1028863
19:00+9˚ese357755 0.0 1029101
22:00+9˚ese367669 0.0 1030295
4 december, fri
fri401:00+9˚se127899 0.0 1029144
04:00+8˚se1180100 0.0 102830
07:00+8˚e1280100 0.0 102855
10:00+9˚ese2378100 0.0 1029276
13:00+10˚e3373100 0.0 1027561
16:00+10˚ese2271100 0.0 1026586
19:00+9˚ese1277100 0.0 1026110
22:00+9˚se1180100 0.1 102779
5 december, sat
sat501:00+8˚w018697 0.0 102625
04:00+8˚nw118294 0.0 102539
07:00+7˚nw238791 0.0 102558
10:00+9˚nnw127792 0.0 1025193
13:00+12˚nne106129 0.0 1024720
16:00+12˚ne115517 0.0 1023878
19:00+9˚ese11697 0.0 102422
22:00+11˚ene226349 0.0 102540